Weather History for Pottstown, PA

Change the Weather History Date:

Wednesday, February 13, 2013

  Actual Average (KRDG) Record (KRDG)
Temperature  
Mean Temperature 32 °F 32 °F  
Max Temperature 43 °F 41 °F 62 °F (1937)
Min Temperature 21 °F 23 °F -3 °F (1979)
Degree Days  
Heating Degree Days 33 33  
Month to date heating degree days 447  
Since 1 July heating degree days 3572  
Cooling Degree Days 0 0  
Month to date cooling degree days 0  
Year to date cooling degree days 0  
Moisture  
Dew Point 29 °F    
Average Humidity 84    
Maximum Humidity 100    
Minimum Humidity 51    
Precipitation  
Precipitation 0.22 in 0.10 in 1.92 in (1966)
Month to date precipitation 1.12  
Year to date precipitation 4.17  
Sea Level Pressure  
Sea Level Pressure 29.79 in    
Wind  
Wind Speed 1 mph (NNE)    
Max Wind Speed 8 mph    
Max Gust Speed -    
Visibility 5 miles    
Events Rain , Snow    
T = Trace of Precipitation, MM = Missing Value Source: NWS Daily Summary

Daily Weather History Graph

Daily Weather History Graph

Search for Another Location

Airport:

Trip Planner

Search our weather history database for the weather conditions in past years. The results will help you decide how hot, cold, wet, or windy it might be!

Date:

Astronomy

Feb. 13, 2013 Rise Set
Actual Time 6:57 AM EST 5:35 PM EST
Civil Twilight 6:29 AM EST 6:03 PM EST
Nautical Twilight 5:57 AM EST 6:35 PM EST
Astronomical Twilight 5:26 AM EST 7:07 PM EST
Moon 8:25 AM EST (2/13) 9:36 PM EST (2/13)
Length of Visible Light 11h 33m
Length of Day
10h 38m
Waxing Crescent, 13% of the Moon is Illuminated
Feb 13
Waxing Crescent
Feb 17
First Quarter
Feb 25
Full
Mar 4
Last Quarter
Mar 11
New

Hourly Weather History & Observations

Time (EST) Temp. Windchill Dew Point Humidity Pressure Visibility Wind Dir Wind Speed Gust Speed Precip Events Conditions
12:54 AM 27.0 °F - 23.0 °F 85% 29.97 in 9.0 mi Calm Calm - N/A   Clear
1:54 AM 26.1 °F - 21.9 °F 84% 29.97 in 9.0 mi Calm Calm - N/A   Clear
2:54 AM 25.0 °F - 21.9 °F 88% 29.95 in 8.0 mi Calm Calm - N/A   Clear
3:54 AM 24.1 °F - 21.0 °F 88% 29.92 in 8.0 mi Calm Calm - N/A   Clear
4:54 AM 23.0 °F - 19.9 °F 88% 29.93 in 7.0 mi Calm Calm - N/A   Clear
5:54 AM 24.1 °F - 21.9 °F 91% 29.92 in 7.0 mi Calm Calm - N/A   Clear
6:54 AM 21.9 °F - 21.0 °F 96% 29.92 in 7.0 mi Calm Calm - N/A   Clear
7:54 AM 27.0 °F - 24.1 °F 89% 29.91 in 5.0 mi Calm Calm - N/A   Clear
8:54 AM 34.0 °F 31.0 °F 27.0 °F 75% 29.90 in 7.0 mi NE 3.5 mph - N/A   Clear
9:54 AM 35.1 °F 31.0 °F 26.1 °F 70% 29.90 in 10.0 mi South 4.6 mph - N/A   Clear
10:54 AM 37.0 °F 34.5 °F 26.1 °F 65% 29.88 in 10.0 mi Variable 3.5 mph - N/A   Clear
11:54 AM 39.9 °F 37.8 °F 25.0 °F 55% 29.85 in 10.0 mi East 3.5 mph - N/A   Clear
12:54 PM 42.1 °F 39.2 °F 26.1 °F 53% 29.79 in 10.0 mi Variable 4.6 mph - N/A   Clear
1:54 PM 43.0 °F 41.3 °F 26.1 °F 51% 29.78 in 10.0 mi North 3.5 mph - N/A   Clear
2:54 PM 43.0 °F 41.3 °F 26.1 °F 51% 29.75 in 10.0 mi East 3.5 mph - N/A   Overcast
3:54 PM 43.0 °F 38.8 °F 27.0 °F 53% 29.72 in 10.0 mi ENE 6.9 mph - N/A   Mostly Cloudy
4:54 PM 41.0 °F 35.8 °F 27.0 °F 57% 29.70 in 10.0 mi NE 8.1 mph - N/A   Overcast
5:54 PM 39.9 °F 37.8 °F 27.0 °F 60% 29.70 in 10.0 mi ENE 3.5 mph - 0.00 in Rain Light Rain
6:17 PM 37.4 °F 32.8 °F 30.2 °F 75% 29.71 in 6.0 mi NE 5.8 mph - 0.00 in Snow Light Snow
6:54 PM 35.1 °F - 32.0 °F 89% 29.73 in 3.0 mi Calm Calm - 0.01 in Snow Light Snow
7:06 PM 33.8 °F - 33.8 °F 100% 29.73 in 1.8 mi Calm Calm - 0.02 in Snow Light Snow
7:21 PM 33.8 °F - 32.0 °F 93% 29.72 in 1.2 mi Calm Calm - 0.03 in Snow Light Snow
7:38 PM 33.8 °F 30.8 °F 32.0 °F 93% 29.73 in 0.8 mi NW 3.5 mph - 0.06 in Snow Light Snow
7:46 PM 33.8 °F 29.6 °F 32.0 °F 93% 29.73 in 1.0 mi NNW 4.6 mph - 0.07 in Snow Light Snow
7:54 PM 33.1 °F 30.0 °F 32.0 °F 96% 29.73 in 1.0 mi North 3.5 mph - 0.08 in Snow Light Snow
8:41 PM 33.8 °F - 33.8 °F 100% 29.72 in 2.0 mi Calm Calm - 0.04 in Snow Light Snow
8:54 PM 33.1 °F - 32.0 °F 96% 29.73 in 1.2 mi Calm Calm - 0.04 in Snow Light Snow
9:04 PM 33.8 °F 30.8 °F 33.8 °F 100% 29.72 in 0.8 mi North 3.5 mph - 0.02 in Snow Light Snow
9:28 PM 33.8 °F - 32.0 °F 93% 29.72 in 1.2 mi Calm Calm - 0.05 in Snow Light Snow
9:46 PM 33.8 °F - 33.8 °F 100% 29.72 in 1.8 mi Calm Calm - 0.06 in Snow Light Snow
9:54 PM 33.1 °F - 33.1 °F 100% 29.72 in 2.0 mi Calm Calm - 0.06 in Snow Light Snow
10:09 PM 33.8 °F - 33.8 °F 100% 29.72 in 3.0 mi Calm Calm - 0.00 in Snow Light Snow
10:26 PM 33.8 °F - 32.0 °F 93% 29.72 in 2.0 mi Calm Calm - 0.00 in Snow Light Snow
10:42 PM 33.8 °F - 32.0 °F 93% 29.72 in 2.5 mi Calm Calm - 0.01 in Snow Light Snow
10:51 PM 33.8 °F - 32.0 °F 93% 29.73 in 1.8 mi Calm Calm - 0.01 in Snow Light Snow
10:54 PM 33.1 °F 30.0 °F 32.0 °F 96% 29.73 in 1.8 mi NW 3.5 mph - 0.01 in Snow Light Snow
11:54 PM 33.1 °F - 33.1 °F 100% 29.73 in 1.8 mi Calm Calm - 0.02 in Snow Light Snow